CW5404 Weather Reports


time (UTC)temp
F
wind
direction
speed
knots
gust
knots
rain 1hr
in
rain 24hr
in
rain mn
in
humidity
%
barometer
mb
20260901135453 56 355 0.0 0.0 0.00 0.00 0.00 89 1011.2
20260901134953 56 355 0.0 0.0 0.00 0.00 0.00 89 1011.2
20260901134453 56 355 0.0 0.0 0.00 0.00 0.00 89 1011.2
20260901133953 56 355 0.0 0.0 0.00 0.00 0.00 89 1011.2
20260901133453 56 355 0.0 0.0 0.00 0.00 0.00 90 1011.2
20260901132953 56 355 0.0 0.0 0.00 0.00 0.00 90 1011.2
20260901132453 56 355 0.0 0.0 0.00 0.00 0.00 90 1011.2
20260901131953 56 355 0.0 0.0 0.00 0.00 0.00 90 1011.2
20260901131453 55 355 0.0 0.0 0.00 0.00 0.00 90 1011.2
20260901130953 55 355 0.0 0.0 0.00 0.00 0.00 90 1011.2
20260901130453 55 355 0.0 0.0 0.00 0.00 0.00 90 1011.2
20260901125953 55 355 0.0 0.0 0.00 0.00 0.00 90 1011.2
20260901125453 55 355 0.0 0.0 0.00 0.00 0.00 91 1011.2
20260901124952 55 355 0.0 0.0 0.00 0.00 0.00 91 1011.2
20260901123453 55 355 0.0 0.0 0.00 0.00 0.00 91 1011.2
20260901122953 54 355 0.0 0.0 0.00 0.00 0.00 91 1011.2
20260901122452 54 355 0.0 0.0 0.00 0.00 0.00 91 1011.2
20260901121953 54 355 0.0 0.0 0.00 0.00 0.00 91 1011.2
20260901121453 54 355 0.0 0.0 0.00 0.00 0.00 91 1011.2
20260901120452 54 355 0.0 0.0 0.00 0.00 0.00 91 1011.2
20260901115952 54 355 0.0 0.0 0.00 0.00 0.00 91 1011.2
20260901115453 54 355 0.0 0.0 0.00 0.00 0.00 92 1011.2
20260901114952 54 355 0.0 0.0 0.00 0.00 0.00 92 1011.2
20260901114452 54 360 0.0 0.0 0.00 0.00 0.00 92 1011.2
20260901113952 53 360 0.0 0.0 0.00 0.00 0.00 92 1011.1
20260901112952 53 360 0.0 0.0 0.00 0.00 0.00 92 1011.1
20260901112452 53 360 0.0 0.0 0.00 0.00 0.00 92 1010.9
20260901111452 53 360 0.0 0.0 0.00 0.00 0.00 91 1010.9
20260901110452 53 360 0.0 0.0 0.00 0.00 0.00 91 1010.9
20260901105953 53 360 0.0 0.0 0.00 0.00 0.00 91 1010.9
20260901104952 53 360 0.0 0.0 0.00 0.00 0.00 90 1010.8
20260901104452 53 360 0.0 0.0 0.00 0.00 0.00 90 1010.8
20260901103952 53 360 0.0 0.0 0.00 0.00 0.00 90 1010.8
20260901102952 53 360 0.0 0.0 0.00 0.00 0.00 89 1010.8
20260901102452 53 360 0.0 0.0 0.00 0.00 0.00 89 1010.9
20260901101952 53 360 0.0 0.0 0.00 0.00 0.00 89 1010.9
20260901101452 53 360 0.0 0.0 0.00 0.00 0.00 89 1010.9
20260901100952 53 360 0.0 0.0 0.00 0.00 0.00 89 1010.8
20260901100452 53 360 0.0 0.0 0.00 0.00 0.00 89 1010.8
20260901095951 53 360 0.0 0.0 0.00 0.00 0.00 89 1010.8
20260901094952 54 360 0.0 0.0 0.00 0.00 0.00 89 1010.7
20260901093951 54 360 0.0 0.0 0.00 0.00 0.00 89 1010.9
20260901093451 54 360 0.0 0.0 0.00 0.00 0.00 89 1010.9
20260901092952 54 360 0.0 0.0 0.00 0.00 0.00 88 1010.9
20260901092451 54 360 0.0 0.0 0.00 0.00 0.00 88 1010.8
20260901091951 54 360 0.0 0.0 0.00 0.00 0.00 88 1010.8
20260901091451 54 360 0.0 0.0 0.00 0.00 0.00 88 1010.8
20260901090951 54 360 0.0 0.0 0.00 0.00 0.00 87 1010.6
20260901090451 54 360 0.0 0.0 0.00 0.00 0.00 87 1010.6
20260901085951 55 360 0.0 0.0 0.00 0.00 0.00 87 1010.6
20260901085451 55 360 0.0 0.0 0.00 0.00 0.00 87 1010.5
20260901084951 55 360 0.0 0.0 0.00 0.00 0.00 87 1010.5
20260901084451 55 360 0.0 0.0 0.00 0.00 0.00 87 1010.5
20260901083451 55 360 0.0 0.0 0.00 0.00 0.00 86 1010.4
20260901082952 56 360 0.0 0.0 0.00 0.00 0.00 86 1010.4
20260901082451 56 360 0.0 0.0 0.00 0.00 0.00 86 1010.5
20260901081951 56 360 0.0 0.0 0.00 0.00 0.00 86 1010.5
20260901081451 56 360 0.0 0.0 0.00 0.00 0.00 86 1010.5
20260901080951 56 360 0.0 0.0 0.00 0.00 0.00 85 1010.4
20260901080451 56 360 0.0 0.0 0.00 0.00 0.00 85 1010.4
20260901075951 57 360 0.0 0.0 0.00 0.00 0.00 85 1010.4
20260901074951 57 360 0.0 0.0 0.00 0.00 0.00 84 1010.3
20260901074451 57 360 0.0 0.0 0.00 0.00 0.00 84 1010.3
20260901073951 57 360 0.0 0.0 0.00 0.00 0.00 84 1010.2
20260901073451 58 360 0.0 0.0 0.00 0.00 0.00 84 1010.3
20260901072951 58 355 0.0 0.0 0.00 0.00 0.00 84 1010.3
20260901072451 58 274 0.0 0.0 0.00 0.00 0.00 83 1010.1
20260901071951 58 274 0.0 0.0 0.00 0.00 0.00 83 1010.1
20260901071451 58 274 0.0 0.0 0.00 0.00 0.00 82 1010.1
20260901070951 58 256 0.0 0.0 0.00 0.00 0.00 82 1010.0
20260901070450 58 256 0.0 0.0 0.00 0.00 0.00 81 1010.0
20260901065450 59 256 0.0 0.0 0.00 0.00 0.00 81 1009.7
20260901064950 59 256 0.0 0.0 0.00 0.00 0.00 80 1009.7
20260901064451 59 256 0.0 0.0 0.00 0.00 0.00 81 1009.7
20260901063951 59 256 0.0 0.0 0.00 0.00 0.00 80 1009.7
20260901062951 60 231 0.0 0.0 0.00 0.00 0.00 80 1009.7
20260901062450 60 308 0.0 0.0 0.00 0.00 0.00 79 1009.6
20260901061951 60 308 0.0 0.0 0.00 0.00 0.00 79 1009.6
20260901061450 60 311 0.0 0.0 0.00 0.00 0.00 79 1009.6
20260901060950 60 311 0.0 1.7 0.00 0.00 0.00 78 1009.5
20260901055951 60 227 0.0 2.6 0.00 0.00 0.00 78 1009.5
20260901055450 61 230 2.6 2.6 0.00 0.00 0.00 77 1009.4
20260901054950 61 270 0.0 2.6 0.00 0.00 0.00 77 1009.4
20260901054450 61 244 0.0 2.6 0.00 0.00 0.00 77 1009.4
20260901053950 61 217 0.9 4.3 0.00 0.00 0.00 76 1009.3
20260901053450 61 218 0.9 4.3 0.00 0.00 0.00 76 1009.3
20260901052950 62 234 0.0 3.5 0.00 0.00 0.00 76 1009.3
20260901052450 62 151 0.0 0.9 0.00 0.00 0.00 75 1009.1
20260901051950 62 243 0.0 2.6 0.00 0.00 0.00 74 1009.1
20260901051450 63 243 0.0 2.6 0.00 0.00 0.00 73 1009.1
20260901050950 63 241 0.0 1.7 0.00 0.00 0.00 73 1008.9
20260901050450 63 209 0.0 3.5 0.00 0.00 0.00 72 1008.9
20260901045950 64 209 0.0 3.5 0.00 0.00 0.00 71 1009.0
20260901045450 64 178 0.9 0.9 0.00 0.00 0.00 70 1008.9
20260901044950 64 178 0.0 2.6 0.00 0.00 0.00 68 1008.9
20260901044450 65 178 0.0 2.6 0.00 0.00 0.00 66 1008.9
20260901043950 65 179 0.9 2.6 0.00 0.00 0.00 65 1008.9
20260901043450 65 170 0.0 5.2 0.00 0.00 0.00 65 1008.9
20260901042950 66 175 2.6 5.2 0.00 0.00 0.00 66 1008.9
20260901042450 66 214 3.5 3.5 0.00 0.00 0.00 67 1008.6
20260901041949 66 198 0.0 3.5 0.00 0.00 0.00 68 1008.6
20260901041450 66 232 0.0 3.5 0.00 0.00 0.00 67 1008.6
20260901040950 66 360 1.7 3.5 0.00 0.00 0.00 67 1008.4
20260901040449 66 360 2.6 3.5 0.00 0.00 0.00 67 1008.4
20260901035950 67 200 0.0 0.0 0.00 0.00 0.00 66 1008.4
20260901035450 67 231 0.0 2.6 0.00 0.00 0.00 65 1008.1
20260901034951 67 234 0.0 2.6 0.00 0.00 0.00 65 1008.1
20260901034449 68 294 0.9 2.6 0.00 0.00 0.00 64 1008.1
20260901033949 68 360 0.9 2.6 0.00 0.00 0.00 63 1007.8
20260901033449 68 241 0.9 2.6 0.00 0.00 0.00 62 1007.8
20260901032949 69 221 1.7 1.7 0.00 0.00 0.00 61 1007.8
20260901032449 69 213 1.7 1.7 0.00 0.00 0.00 60 1007.6
20260901031949 70 360 0.0 1.7 0.00 0.00 0.00 59 1007.7
20260901030949 71 271 0.9 1.7 0.00 0.00 0.00 58 1007.6
20260901030449 71 248 1.7 1.7 0.00 0.00 0.00 57 1007.6
20260901024949 72 136 0.0 5.2 0.00 0.00 0.00 55 1007.4
20260901024449 72 214 0.0 5.2 0.00 0.00 0.00 55 1007.4
20260901023948 73 225 0.0 0.9 0.00 0.00 0.00 55 1007.3
20260901023449 73 201 0.0 0.0 0.00 0.00 0.00 55 1007.3
20260901022948 74 201 0.0 0.0 0.00 0.00 0.00 53 1007.3
20260901022449 74 201 0.0 0.0 0.00 0.00 0.00 52 1007.2
20260901021948 74 201 0.0 0.0 0.00 0.00 0.00 51 1007.2
20260901021448 75 199 0.0 0.9 0.00 0.00 0.00 50 1007.2
20260901020949 75 199 0.0 2.6 0.00 0.00 0.00 49 1007.0
20260901020448 75 194 0.0 3.5 0.00 0.00 0.00 49 1007.0
20260901015948 76 237 0.9 3.5 0.00 0.00 0.00 48 1007.0
20260901015448 76 9 0.0 2.6 0.00 0.00 0.00 48 1006.9
20260901014448 77 169 0.0 2.6 0.00 0.00 0.00 47 1006.9
20260901013949 78 160 0.9 0.9 0.00 0.00 0.00 46 1006.8
20260901013449 79 99 0.0 0.9 0.00 0.00 0.00 45 1006.8
20260901012948 79 90 0.0 3.5 0.00 0.00 0.00 44 1006.8
20260901012448 80 42 0.9 3.5 0.00 0.00 0.00 44 1006.8
20260901011948 80 58 0.9 1.7 0.00 0.00 0.00 42 1006.8
20260901011449 81 59 0.0 3.5 0.00 0.00 0.00 42 1006.8
20260901010948 81 61 0.9 3.5 0.00 0.00 0.00 40 1006.8
20260901010448 82 59 0.0 1.7 0.00 0.00 0.00 39 1006.8
20260901005948 82 15 0.0 1.7 0.00 0.00 0.00 38 1006.8
20260901004948 83 209 1.7 6.1 0.00 0.00 0.00 38 1006.8
20260901003948 85 177 3.5 4.3 0.00 0.00 0.00 36 1006.8
20260901003448 85 159 2.6 2.6 0.00 0.00 0.00 37 1006.8
20260901002948 85 186 1.7 2.6 0.00 0.00 0.00 37 1006.8
20260901002448 85 216 0.0 3.5 0.00 0.00 0.00 36 1006.7
20260901001948 85 216 0.0 3.5 0.00 0.00 0.00 35 1006.7
20260901001448 86 207 0.9 2.6 0.00 0.00 0.00 35 1006.7
20260901000948 86 200 1.7 3.5 0.00 0.00 0.00 36 1006.6
20260831235948 86 111 3.5 5.2 0.00 0.00 0.00 32 1006.6
20260831235448 86 153 2.6 2.6 0.00 0.00 0.00 32 1006.6
20260831234948 85 68 0.9 3.5 0.00 0.00 0.00 34 1006.6
20260831234448 85 29 1.7 4.3 0.00 0.00 0.00 34 1006.6
20260831233948 85 20 3.5 4.3 0.00 0.00 0.00 32 1006.6
20260831232448 85 211 0.0 6.1 0.00 0.00 0.00 32 1006.8
20260831231948 85 209 1.7 6.1 0.00 0.00 0.00 31 1006.8
20260831231448 85 82 0.0 6.1 0.00 0.00 0.00 31 1006.8
20260831230948 85 167 1.7 6.1 0.00 0.00 0.00 31 1006.9
20260831230448 86 220 4.3 4.3 0.00 0.00 0.00 30 1006.9
20260831225948 85 121 1.7 4.3 0.00 0.00 0.00 30 1006.9
20260831225448 85 193 0.0 5.2 0.00 0.00 0.00 30 1007.0
20260831224947 85 175 1.7 5.2 0.00 0.00 0.00 30 1007.0
20260831224447 85 189 2.6 5.2 0.00 0.00 0.00 30 1007.0
20260831223448 84 199 1.7 5.2 0.00 0.00 0.00 31 1007.1
20260831222447 84 138 1.7 4.3 0.00 0.00 0.00 31 1007.2
20260831221947 84 137 3.5 5.2 0.00 0.00 0.00 31 1007.2
20260831221447 84 99 0.9 5.2 0.00 0.00 0.00 32 1007.2
20260831220947 84 74 2.6 4.3 0.00 0.00 0.00 31 1007.5
20260831220447 84 152 3.5 4.3 0.00 0.00 0.00 32 1007.5
20260831215948 84 113 2.6 4.3 0.00 0.00 0.00 31 1007.5
20260831215447 83 214 1.7 4.3 0.00 0.00 0.00 32 1007.7
20260831214447 82 106 0.9 5.2 0.00 0.00 0.00 33 1007.7
20260831213947 82 53 2.6 5.2 0.00 0.00 0.00 33 1008.0
20260831213447 83 30 0.9 2.6 0.00 0.00 0.00 33 1008.0
20260831212947 82 55 0.0 4.3 0.00 0.00 0.00 34 1008.0
20260831212447 81 57 1.7 5.2 0.00 0.00 0.00 34 1007.9
20260831211947 81 89 0.9 5.2 0.00 0.00 0.00 34 1007.9
20260831211447 81 136 3.5 4.3 0.00 0.00 0.00 34 1007.9
20260831210947 81 105 0.9 4.3 0.00 0.00 0.00 34 1008.0
20260831210447 81 167 0.9 3.5 0.00 0.00 0.00 35 1008.0
20260831205947 81 105 0.0 3.5 0.00 0.00 0.00 35 1008.0
20260831205447 81 78 3.5 3.5 0.00 0.00 0.00 35 1008.4
20260831204947 80 207 0.9 3.5 0.00 0.00 0.00 36 1008.4
20260831204447 81 190 1.7 3.5 0.00 0.00 0.00 35 1008.4
20260831203947 81 20 1.7 4.3 0.00 0.00 0.00 36 1008.5
20260831202947 81 5 1.7 2.6 0.00 0.00 0.00 35 1008.5
20260831202447 80 334 0.9 1.7 0.00 0.00 0.00 36 1008.6
20260831201946 80 216 0.9 3.5 0.00 0.00 0.00 36 1008.6
20260831201446 79 140 0.9 4.3 0.00 0.00 0.00 39 1008.5
20260831194947 78 157 1.7 4.3 0.00 0.00 0.00 42 1009.0
20260831194446 77 92 0.9 6.1 0.00 0.00 0.00 41 1009.0
20260831193947 77 53 2.6 6.1 0.00 0.00 0.00 43 1009.2
20260831193446 77 107 2.6 5.2 0.00 0.00 0.00 42 1009.2
20260831192947 77 229 3.5 5.2 0.00 0.00 0.00 43 1009.2
20260831192446 77 119 0.9 4.3 0.00 0.00 0.00 43 1009.5
20260831191946 77 30 4.3 4.3 0.00 0.00 0.00 43 1009.5
20260831191447 77 144 0.9 3.5 0.00 0.00 0.00 44 1009.5
20260831190947 76 45 0.9 4.3 0.00 0.00 0.00 45 1009.7
20260831190446 75 137 0.9 4.3 0.00 0.00 0.00 45 1009.7
20260831185946 75 57 1.7 5.2 0.00 0.00 0.00 46 1009.7
20260831185447 75 115 3.5 5.2 0.00 0.00 0.00 46 1009.7
20260831184947 75 103 2.6 4.3 0.00 0.00 0.00 47 1009.7
20260831184447 74 178 0.9 4.3 0.00 0.00 0.00 47 1009.7
20260831183446 73 86 1.7 5.2 0.00 0.00 0.00 49 1010.0
20260831182946 73 58 2.6 4.3 0.00 0.00 0.00 48 1010.0
20260831182446 73 127 0.9 3.5 0.00 0.00 0.00 49 1010.1
20260831181946 73 231 1.7 3.5 0.00 0.00 0.00 49 1010.1
20260831181446 72 70 3.5 6.1 0.00 0.00 0.00 51 1010.1
20260831180946 72 355 0.9 6.1 0.00 0.00 0.00 51 1010.3
20260831180446 73 36 0.9 4.3 0.00 0.00 0.00 50 1010.3
20260831175946 72 59 0.9 3.5 0.00 0.00 0.00 50 1010.3
20260831175446 72 154 0.0 4.3 0.00 0.00 0.00 52 1010.4
20260831174946 71 55 0.9 4.3 0.00 0.00 0.00 54 1010.4
20260831174447 71 63 0.9 4.3 0.00 0.00 0.00 53 1010.4
20260831173946 70 143 1.7 2.6 0.00 0.00 0.00 55 1010.5
20260831173446 69 32 0.9 5.2 0.00 0.00 0.00 56 1010.5
20260831172946 69 44 1.7 7.0 0.00 0.00 0.00 56 1010.5
20260831171946 69 35 1.7 3.5 0.00 0.00 0.00 57 1010.6
20260831171447 69 338 0.9 3.5 0.00 0.00 0.00 57 1010.6
20260831170946 69 5 1.7 4.3 0.00 0.00 0.00 58 1010.9
20260831170446 68 53 1.7 4.3 0.00 0.00 0.00 59 1010.9
20260831165946 68 90 0.9 3.5 0.00 0.00 0.00 60 1010.9
20260831165446 67 116 1.7 4.3 0.00 0.00 0.00 61 1010.9
20260831164946 67 57 2.6 5.2 0.00 0.00 0.00 61 1010.9
20260831164446 67 24 0.9 5.2 0.00 0.00 0.00 61 1010.9
20260831163946 67 56 2.6 4.3 0.00 0.00 0.00 60 1011.1
20260831162946 67 56 1.7 4.3 0.00 0.00 0.00 61 1011.1
20260831162446 67 57 1.7 4.3 0.00 0.00 0.00 61 1011.1
20260831161946 67 83 4.3 4.3 0.00 0.00 0.00 62 1011.1
20260831161446 67 73 0.0 3.5 0.00 0.00 0.00 62 1011.1
20260831160946 66 49 0.9 2.6 0.00 0.00 0.00 63 1011.3
20260831155446 66 114 0.0 0.0 0.00 0.00 0.00 64 1011.3
20260831154946 65 107 0.0 0.0 0.00 0.00 0.00 65 1011.3
20260831154446 65 55 0.0 0.0 0.00 0.00 0.00 66 1011.3
20260831153946 64 61 0.0 0.0 0.00 0.00 0.00 67 1011.3
20260831153446 63 341 0.0 0.0 0.00 0.00 0.00 70 1011.3
20260831152946 62 340 0.0 0.0 0.00 0.00 0.00 74 1011.3
20260831152446 60 340 0.0 0.0 0.00 0.00 0.00 77 1011.4
20260831151946 59 340 0.0 0.0 0.00 0.00 0.00 79 1011.3
20260831151446 58 340 0.0 0.0 0.00 0.00 0.00 81 1011.3
20260831150946 58 340 0.0 0.0 0.00 0.00 0.00 84 1011.3
20260831145946 56 340 0.0 0.0 0.00 0.00 0.00 88 1011.3
20260831145446 55 360 0.0 0.0 0.00 0.00 0.00 89 1011.5
20260831144945 54 360 0.0 0.0 0.00 0.00 0.00 91 1011.5
20260831144445 54 360 0.0 0.0 0.00 0.00 0.00 92 1011.5
20260831143945 53 360 0.0 0.0 0.00 0.00 0.00 92 1011.3
20260831143445 53 360 0.0 0.0 0.00 0.00 0.00 92 1011.3
20260831142945 52 360 0.0 0.0 0.00 0.00 0.00 92 1011.3
20260831142445 52 360 0.0 0.0 0.00 0.00 0.00 92 1011.3
20260831141946 51 360 0.0 0.0 0.00 0.00 0.00 92 1011.3
20260831141446 51 340 0.0 0.0 0.00 0.00 0.00 92 1011.3
20260831140945 51 340 0.0 0.0 0.00 0.00 0.00 92 1011.3
20260831140445 50 340 0.0 0.0 0.00 0.00 0.00 91 1011.3
20260831135945 50 340 0.0 0.0 0.00 0.00 0.00 91 1011.3